EW2493 Weather Reports


Display with metric or nautical units.
time (UTC)temp
F
wind
direction
speed
MPH
gust
MPH
rain 1hr
in
rain 24hr
in
rain mn
in
humidity
%
barometer
mb
20260901070022 57 270 1.0 3.0 0.00 0.02 0.00 66 1006.0
20260901064520 57 274 0.0 2.0 0.00 0.02 0.00 62 1006.1
20260901063017 58 275 1.0 3.0 0.00 0.02 0.00 61 1006.1
20260901061516 58 276 1.0 3.0 0.00 0.02 0.00 54 1006.1
20260901060022 59 276 2.0 3.0 0.00 0.02 0.00 52 1005.9
20260901054515 58 225 0.0 0.0 0.00 0.03 0.00 59 1006.0
20260901053007 60 224 0.0 0.0 0.00 0.03 0.00 70 1005.9
20260901051504 62 223 0.0 2.0 0.00 0.03 0.00 72 1005.8
20260901050101 64 223 0.0 2.0 0.00 0.03 0.00 72 1005.7
20260901044558 64 209 0.0 2.0 0.00 0.03 0.03 72 1005.6
20260901043052 64 222 0.0 1.0 0.00 0.03 0.03 72 1005.5
20260901041547 64 236 0.0 2.0 0.00 0.03 0.03 72 1005.5
20260901040043 66 228 0.0 1.0 0.00 0.03 0.03 72 1005.3
20260901034543 68 202 0.0 1.0 0.00 0.03 0.03 69 1005.2
20260901033043 69 200 0.0 4.0 0.00 0.03 0.03 69 1005.1
20260901031546 69 220 0.0 3.0 0.00 0.03 0.03 68 1005.0
20260901030040 69 230 0.0 2.0 0.00 0.03 0.03 67 1004.9
20260901024537 69 230 0.0 2.0 0.00 0.03 0.03 67 1004.9
20260901023033 70 154 0.0 2.0 0.00 0.03 0.03 65 1004.6
20260901021544 73 153 2.0 4.0 0.00 0.03 0.03 61 1004.3
20260901020024 73 203 0.0 4.0 0.00 0.03 0.03 59 1004.2
20260901014520 73 208 1.0 4.0 0.00 0.03 0.03 58 1004.1
20260901013115 72 228 0.0 3.0 0.00 0.03 0.03 59 1003.8
20260901011517 76 301 1.0 5.0 0.00 0.03 0.03 56 1003.7
20260901010020 80 199 1.0 6.0 0.00 0.03 0.03 48 1003.5
20260901004501 83 194 1.0 3.0 0.00 0.03 0.03 43 1003.5
20260901003104 84 210 0.0 4.0 0.00 0.03 0.03 39 1003.5
20260901001553 85 190 1.0 5.0 0.00 0.03 0.03 36 1003.5
20260901000051 85 203 3.0 7.0 0.00 0.03 0.03 37 1003.4
20260831234545 85 206 4.0 10.0 0.00 0.03 0.03 36 1003.3
20260831233040 86 213 4.0 10.0 0.00 0.03 0.03 35 1003.4
20260831231535 87 194 5.0 13.0 0.00 0.03 0.03 31 1003.4
20260831230030 86 244 3.0 12.0 0.00 0.03 0.03 29 1003.5
20260831224527 86 207 4.0 12.0 0.00 0.03 0.03 28 1003.5
20260831223030 87 244 4.0 10.0 0.00 0.03 0.03 29 1003.5
20260831221521 87 226 3.0 11.0 0.00 0.03 0.03 30 1003.5
20260831220013 86 224 5.0 15.0 0.00 0.03 0.03 29 1003.5
20260831214509 86 232 5.0 14.0 0.00 0.03 0.03 29 1003.4
20260831213005 86 219 5.0 10.0 0.00 0.03 0.03 29 1003.6
20260831211613 86 242 6.0 14.0 0.00 0.03 0.03 29 1003.6
20260831210055 86 244 5.0 14.0 0.00 0.03 0.03 30 1003.8
20260831204550 85 238 4.0 14.0 0.00 0.03 0.03 32 1003.8
20260831203045 85 288 8.0 14.0 0.00 0.03 0.03 31 1004.1
20260831201549 84 231 6.0 15.0 0.00 0.03 0.03 33 1004.0
20260831200041 85 277 7.0 14.0 0.00 0.03 0.03 31 1004.2
20260831194605 84 290 6.0 13.0 0.00 0.03 0.03 32 1004.3
20260831193028 84 211 5.0 13.0 0.01 0.03 0.03 31 1004.6
20260831191622 84 243 4.0 17.0 0.01 0.03 0.03 35 1004.6
20260831190022 83 277 1.0 9.0 0.01 0.03 0.03 35 1004.8
20260831184515 82 265 0.0 13.0 0.00 0.02 0.02 36 1004.8
20260831183009 81 281 6.0 11.0 0.00 0.02 0.02 36 1004.9
20260831181505 80 310 3.0 11.0 0.00 0.02 0.02 44 1005.0
20260831180100 80 254 2.0 10.0 0.00 0.02 0.02 47 1005.2
20260831174556 79 281 6.0 10.0 0.00 0.02 0.02 46 1005.3
20260831173051 78 284 5.0 11.0 0.00 0.02 0.02 50 1005.4
20260831171549 76 232 6.0 10.0 0.00 0.02 0.02 53 1005.4
20260831170045 75 289 5.0 11.0 0.00 0.02 0.02 59 1005.2
20260831164539 73 241 1.0 8.0 0.00 0.02 0.02 65 1005.4
20260831163038 71 268 3.0 9.0 0.00 0.02 0.02 69 1005.6
20260831161533 69 184 2.0 9.0 0.00 0.02 0.02 73 1005.7
20260831160026 68 215 2.0 7.0 0.01 0.02 0.02 73 1005.6
20260831154529 66 268 4.0 7.0 0.01 0.02 0.02 74 1005.7
20260831153019 66 278 3.0 6.0 0.01 0.02 0.02 74 1005.7
20260831151512 65 241 3.0 8.0 0.01 0.02 0.02 69 1005.4
20260831150009 63 274 1.0 7.0 0.00 0.01 0.01 60 1005.2
20260831144503 63 251 3.0 7.0 0.00 0.01 0.01 60 1005.4
20260831143104 62 273 1.0 6.0 0.00 0.01 0.01 42 1005.2
20260831141554 60 204 2.0 8.0 0.00 0.01 0.01 32 1005.4
20260831140050 59 230 1.0 4.0 0.00 0.01 0.01 7 1005.4
20260831134546 58 180 2.0 9.0 0.00 0.01 0.01 1 1005.2
20260831133047 57 167 4.0 8.0 0.00 0.01 0.01 1 1004.9
20260831131536 56 204 2.0 4.0 0.00 0.01 0.01 1 1004.6
20260831130132 54 249 0.0 2.0 0.00 0.01 0.01 1 1004.3
20260831124532 53 247 1.0 4.0 0.00 0.01 0.01 1 1004.0
20260831123032 52 257 1.0 3.0 0.00 0.01 0.01 1 1003.8
20260831121528 52 254 1.0 3.0 0.00 0.01 0.01 1 1003.7
20260831120018 53 238 1.0 2.0 0.00 0.01 0.01 1 1003.6
20260831114513 52 275 0.0 1.0 0.00 0.01 0.01 1 1003.4
20260831113009 51 275 0.0 1.0 0.00 0.01 0.01 1 1003.2
20260831111503 52 279 0.0 0.0 0.00 0.01 0.01 1 1002.9
20260831110059 52 278 0.0 2.0 0.00 0.01 0.01 1 1002.5
20260831104555 53 278 0.0 1.0 0.00 0.01 0.01 1 1002.4
20260831103050 54 279 0.0 1.0 0.00 0.01 0.01 1 1002.6
20260831101546 54 280 2.0 3.0 0.00 0.01 0.01 1 1002.5
20260831094537 55 280 2.0 4.0 0.00 0.01 0.01 1 1002.3
20260831093034 56 283 4.0 5.0 0.00 0.01 0.01 1 1002.4
20260831091528 57 282 3.0 5.0 0.00 0.01 0.01 1 1002.2
20260831090024 58 284 3.0 6.0 0.00 0.01 0.01 1 1002.0
20260831084519 59 281 4.0 6.0 0.00 0.05 0.01 1 1001.8
20260831083016 60 277 2.0 4.0 0.00 0.05 0.01 1 1001.5
20260831081511 61 289 5.0 7.0 0.00 0.05 0.01 1 1001.3
20260831080006 61 289 3.0 6.0 0.00 0.05 0.01 1 1001.4
20260831074504 61 268 0.0 0.0 0.00 0.11 0.01 1 1001.2
20260831073101 62 268 0.0 0.0 0.00 0.11 0.01 1 1001.1
20260831071607 63 268 0.0 3.0 0.00 0.11 0.01 1 1000.8